Weather History for Crane Lake, MN

Change the Weather History Date:

Saturday, April 28, 2012

  Actual Average Record
Temperature  
Mean Temperature 42 °F -  
Max Temperature 57 °F 56 °F 82 °F (2004)
Min Temperature 26 °F 29 °F 17 °F (2008)
Degree Days  
Heating Degree Days 24    
Moisture  
Dew Point 12 °F    
Average Humidity 34    
Maximum Humidity 74    
Minimum Humidity 10    
Precipitation  
Precipitation 0.00 in - - ()
Sea Level Pressure  
Sea Level Pressure 30.22 in    
Wind  
Wind Speed 1 mph (ESE)    
Max Wind Speed 9 mph    
Max Gust Speed -    
Visibility 10 miles    
Events      
Averages and records for this station are not official NWS values.
T = Trace of Precipitation, MM = Missing Value Source: NWS Daily Summary

Daily Weather History Graph

Daily Weather History Graph

Search for Another Location

Airport:

Trip Planner

Search our weather history database for the weather conditions in past years. The results will help you decide how hot, cold, wet, or windy it might be!

Date:

Astronomy

Apr. 28, 2012 Rise Set
Actual Time 5:55 AM CDT 8:20 PM CDT
Civil Twilight 5:20 AM CDT 8:55 PM CDT
Nautical Twilight 4:37 AM CDT 9:38 PM CDT
Astronomical Twilight 3:47 AM CDT 10:29 PM CDT
Moon 11:33 AM CDT 1:48 AM CDT
Length of Visible Light 15h 34m
Length of Day
14h 25m
Waxing Crescent, 43% of the Moon is Illuminated
Apr 28
Waxing Crescent
Apr 29
First Quarter
May 5
Full
May 12
Last Quarter
May 20
New

Hourly Weather History & Observations

Time (CDT) Temp. Windchill Dew Point Humidity Pressure Visibility Wind Dir Wind Speed Gust Speed Precip Events Conditions
12:13 AM 33.8 °F - 15.8 °F 48% 30.23 in 10.0 mi Calm Calm - N/A   Clear
12:33 AM 33.8 °F 30.8 °F 12.2 °F 41% 30.23 in 10.0 mi ESE 3.5 mph - N/A   Clear
12:53 AM 33.8 °F - 12.2 °F 41% 30.23 in 10.0 mi Calm Calm - N/A   Clear
1:13 AM 33.8 °F - 12.2 °F 41% 30.23 in 10.0 mi Calm Calm - N/A   Clear
1:33 AM 33.8 °F - 12.2 °F 41% 30.23 in 10.0 mi Calm Calm - N/A   Clear
1:53 AM 32.0 °F - 12.2 °F 44% 30.24 in 10.0 mi Calm Calm - N/A   Clear
2:13 AM 32.0 °F - 12.2 °F 44% 30.24 in 10.0 mi Calm Calm - N/A   Scattered Clouds
2:33 AM 32.0 °F - 12.2 °F 44% 30.23 in 10.0 mi Calm Calm - N/A   Clear
2:53 AM 33.8 °F - 12.2 °F 41% 30.23 in 10.0 mi Calm Calm - N/A   Clear
3:13 AM 32.0 °F - 12.2 °F 44% 30.22 in 10.0 mi Calm Calm - N/A   Clear
3:33 AM 33.8 °F 29.6 °F 10.4 °F 38% 30.22 in 10.0 mi ESE 4.6 mph - N/A   Clear
3:53 AM 33.8 °F - 10.4 °F 38% 30.21 in 10.0 mi Calm Calm - N/A   Clear
4:13 AM 32.0 °F - 10.4 °F 41% 30.21 in 10.0 mi Calm Calm - N/A   Clear
4:33 AM 30.2 °F - 10.4 °F 44% 30.21 in 10.0 mi Calm Calm - N/A   Clear
4:53 AM 30.2 °F - 10.4 °F 44% 30.20 in 10.0 mi Calm Calm - N/A   Clear
5:13 AM 28.4 °F - 10.4 °F 47% 30.18 in 10.0 mi Calm Calm - N/A   Scattered Clouds
5:33 AM 28.4 °F - 12.2 °F 51% 30.18 in 10.0 mi Calm Calm - N/A   Clear
5:53 AM 28.4 °F - 12.2 °F 51% 30.19 in 10.0 mi Calm Calm - N/A   Clear
6:13 AM 26.6 °F - 14.0 °F 59% 30.19 in 10.0 mi Calm Calm - N/A   Clear
6:33 AM 26.6 °F - 12.2 °F 55% 30.20 in 10.0 mi Calm Calm - N/A   Clear
6:53 AM 28.4 °F - 12.2 °F 51% 30.21 in 10.0 mi Calm Calm - N/A   Clear
7:13 AM 30.2 °F - 10.4 °F 44% 30.22 in 10.0 mi Calm Calm - N/A   Clear
7:33 AM 32.0 °F - 10.4 °F 41% 30.23 in 10.0 mi Calm Calm - N/A   Clear
8:33 AM 35.6 °F 32.8 °F 10.4 °F 35% 30.23 in 10.0 mi East 3.5 mph - N/A   Clear
8:53 AM 37.4 °F 34.9 °F 12.2 °F 36% 30.23 in 10.0 mi SE 3.5 mph - N/A   Clear
9:13 AM 39.2 °F 35.9 °F 12.2 °F 33% 30.23 in 10.0 mi East 4.6 mph - N/A   Clear
9:33 AM 41.0 °F - 12.2 °F 31% 30.23 in 10.0 mi Calm Calm - N/A   Clear
9:53 AM 42.8 °F 41.1 °F 14.0 °F 31% 30.23 in 10.0 mi East 3.5 mph - N/A   Clear
10:14 AM 44.6 °F 42.2 °F 15.8 °F 31% 30.23 in 10.0 mi East 4.6 mph - N/A   Scattered Clouds
10:33 AM 46.4 °F 43.5 °F 15.8 °F 29% 30.23 in 10.0 mi SE 5.8 mph - N/A   Scattered Clouds
10:53 AM 46.4 °F 42.9 °F 15.8 °F 29% 30.23 in 10.0 mi ENE 6.9 mph - N/A   Clear
11:13 AM 48.2 °F - 17.6 °F 30% - 10.0 mi SSE 5.8 mph - N/A   Clear
11:33 AM 48.2 °F - 15.8 °F 27% 30.23 in 10.0 mi ESE 3.5 mph - N/A   Clear
11:53 AM 50.0 °F - 15.8 °F 26% 30.23 in 10.0 mi SSE 9.2 mph - N/A   Clear
12:13 PM 51.8 °F - 15.8 °F 24% 30.22 in 10.0 mi SSE 4.6 mph - N/A   Scattered Clouds
12:33 PM 51.8 °F - 15.8 °F 24% 30.22 in 10.0 mi ESE 5.8 mph - N/A   Scattered Clouds
12:53 PM 53.6 °F - 15.8 °F 22% 30.22 in 10.0 mi Calm Calm - N/A   Clear
1:14 PM 51.8 °F - 15.8 °F 24% 30.21 in 10.0 mi ESE 5.8 mph - N/A   Clear
1:33 PM 53.6 °F - 15.8 °F 22% 30.21 in 10.0 mi East 3.5 mph - N/A   Scattered Clouds
1:53 PM 53.6 °F - 14.0 °F 21% 30.21 in 10.0 mi SSE 6.9 mph - N/A   Clear
2:13 PM 55.4 °F - 12.2 °F 18% 30.21 in 10.0 mi SE 3.5 mph - N/A   Clear
2:33 PM 55.4 °F - 10.4 °F 17% 30.21 in 10.0 mi SE 4.6 mph - N/A   Clear
2:53 PM 55.4 °F - 8.6 °F 15% 30.20 in 10.0 mi ENE 5.8 mph - N/A   Clear
3:13 PM 55.4 °F - 6.8 °F 14% 30.20 in 10.0 mi SSE 4.6 mph - N/A   Clear
3:33 PM 55.4 °F - 6.8 °F 14% 30.20 in 10.0 mi ESE 4.6 mph - N/A   Clear
3:53 PM 57.2 °F - 3.2 °F 11% 30.20 in 10.0 mi ESE 3.5 mph - N/A   Clear
4:13 PM 57.2 °F - 3.2 °F 11% 30.20 in 10.0 mi East 3.5 mph - N/A   Clear
4:33 PM 57.2 °F - 3.2 °F 11% 30.19 in 10.0 mi East 3.5 mph - N/A   Clear
4:53 PM 57.2 °F - 3.2 °F 11% 30.20 in 10.0 mi Calm Calm - N/A   Clear
5:13 PM 57.2 °F - 3.2 °F 11% 30.19 in 7.0 mi Calm Calm - N/A   Scattered Clouds
5:33 PM 57.2 °F - -0.4 °F 10% 30.20 in 10.0 mi ESE 3.5 mph - N/A   Clear
5:53 PM 57.2 °F - 1.4 °F 10% 30.20 in 10.0 mi ESE 3.5 mph - N/A   Clear
6:13 PM 57.2 °F - -0.4 °F 10% 30.20 in 10.0 mi SSE 3.5 mph - N/A   Clear
6:33 PM 55.4 °F - -0.4 °F 10% 30.19 in 10.0 mi Calm Calm - N/A   Clear
6:53 PM 55.4 °F - -0.4 °F 10% 30.19 in 10.0 mi Calm Calm - N/A   Clear
7:13 PM 55.4 °F - 1.4 °F 11% 30.18 in 10.0 mi Calm Calm - N/A   Scattered Clouds
7:33 PM 53.6 °F - 5.0 °F 14% 30.18 in 10.0 mi Calm Calm - N/A   Clear
7:53 PM 50.0 °F - 8.6 °F 19% 30.19 in 10.0 mi Calm Calm - N/A   Clear
8:13 PM 46.4 °F - 10.4 °F 23% 30.20 in 10.0 mi Calm Calm - N/A   Clear
8:33 PM 42.8 °F - 17.6 °F 36% 30.21 in 10.0 mi Calm Calm - N/A   Clear
8:53 PM 39.2 °F - 21.2 °F 49% 30.21 in 10.0 mi Calm Calm - N/A   Clear
9:13 PM 35.6 °F - 23.0 °F 60% 30.22 in 10.0 mi Calm Calm - N/A   Clear
9:33 PM 35.6 °F - 23.0 °F 60% 30.23 in 10.0 mi Calm Calm - N/A   Clear
9:53 PM 33.8 °F - 23.0 °F 65% 30.23 in 10.0 mi Calm Calm - N/A   Clear
10:13 PM 33.8 °F - 21.2 °F 60% 30.24 in 10.0 mi Calm Calm - N/A   Clear
10:33 PM 32.0 °F - 21.2 °F 64% 30.24 in 10.0 mi Calm Calm - N/A   Clear
10:53 PM 30.2 °F - 21.2 °F 69% 30.24 in 10.0 mi Calm Calm - N/A   Clear
11:13 PM 30.2 °F - 19.4 °F 64% 30.23 in 10.0 mi Calm Calm - N/A   Clear
11:33 PM 28.4 °F - 21.2 °F 74% 30.25 in 10.0 mi Calm Calm - N/A   Clear
11:53 PM 32.0 °F - 17.6 °F 55% 30.26 in 10.0 mi Calm Calm - N/A   Clear